TimeCDT,TemperatureF,Dew PointF,Humidity,Sea Level PressureIn,VisibilityMPH,Wind Direction,Wind SpeedMPH,Gust SpeedMPH,PrecipitationIn,Events,Conditions,WindDirDegrees,DateUTC
12:15 AM,35.6,35.6,100,29.76,1.8,West,12.7,17.3,N/A,Rain,Light Rain,270,2013-04-11 05:15:00
12:35 AM,33.8,33.8,100,29.75,3.0,WNW,11.5,-,N/A,,Light Drizzle,290,2013-04-11 05:35:00
12:55 AM,33.8,33.8,100,29.75,5.0,WNW,15.0,-,N/A,,Overcast,290,2013-04-11 05:55:00
1:15 AM,33.8,33.8,100,29.76,5.0,West,12.7,-,N/A,,Overcast,280,2013-04-11 06:15:00
1:35 AM,33.8,32.0,93,29.76,2.5,WNW,12.7,-,N/A,,Overcast,290,2013-04-11 06:35:00
1:55 AM,33.8,32.0,93,29.75,2.0,WNW,11.5,-,N/A,,Overcast,290,2013-04-11 06:55:00
2:15 AM,33.8,32.0,93,29.74,4.0,WNW,9.2,-,N/A,,Overcast,290,2013-04-11 07:15:00
2:35 AM,33.8,32.0,93,29.74,4.0,WNW,6.9,-,N/A,,Overcast,300,2013-04-11 07:35:00
2:55 AM,33.8,32.0,93,29.73,4.0,WNW,6.9,-,N/A,,Overcast,300,2013-04-11 07:55:00
3:15 AM,32.0,32.0,100,29.72,5.0,WNW,9.2,-,N/A,,Overcast,300,2013-04-11 08:15:00
3:35 AM,32.0,30.2,93,29.72,7.0,WNW,10.4,-,N/A,,Overcast,290,2013-04-11 08:35:00
3:55 AM,32.0,30.2,93,29.70,7.0,WNW,9.2,-,N/A,,Overcast,300,2013-04-11 08:55:00
4:15 AM,32.0,30.2,93,29.69,4.0,WNW,10.4,-,N/A,,Drizzle,300,2013-04-11 09:15:00
4:35 AM,30.2,30.2,100,29.68,4.0,WNW,9.2,-,N/A,,Freezing Rain,290,2013-04-11 09:35:00
4:55 AM,30.2,30.2,100,29.67,5.0,WNW,6.9,-,N/A,Rain,Freezing Rain,290,2013-04-11 09:55:00
5:15 AM,30.2,30.2,100,29.68,5.0,West,6.9,-,N/A,Snow,Light Snow,270,2013-04-11 10:15:00
5:35 AM,30.2,30.2,100,29.69,4.0,WSW,6.9,-,N/A,Snow,Light Snow,250,2013-04-11 10:35:00
5:55 AM,30.2,30.2,100,29.68,3.0,West,8.1,-,N/A,Snow,Light Snow,270,2013-04-11 10:55:00
6:15 AM,30.2,30.2,100,29.68,2.5,West,6.9,-,N/A,Snow,Light Snow,260,2013-04-11 11:15:00
6:35 AM,30.2,30.2,100,29.68,3.0,West,8.1,-,N/A,Snow,Light Snow,270,2013-04-11 11:35:00
6:55 AM,30.2,30.2,100,29.68,5.0,West,8.1,-,N/A,,Overcast,260,2013-04-11 11:55:00
7:15 AM,30.2,30.2,100,29.69,4.0,WSW,9.2,-,N/A,,Overcast,250,2013-04-11 12:15:00
7:35 AM,30.2,30.2,100,29.69,4.0,WSW,10.4,-,N/A,,Overcast,250,2013-04-11 12:35:00
7:55 AM,30.2,30.2,100,29.69,7.0,WSW,11.5,-,N/A,,Overcast,250,2013-04-11 12:55:00
8:15 AM,30.2,28.4,93,29.70,7.0,WSW,10.4,-,N/A,,Overcast,250,2013-04-11 13:15:00
8:35 AM,30.2,28.4,93,29.70,10.0,WSW,10.4,-,N/A,,Overcast,250,2013-04-11 13:35:00
8:55 AM,30.2,28.4,93,29.69,10.0,West,11.5,-,N/A,,Overcast,260,2013-04-11 13:55:00
9:15 AM,30.2,28.4,93,29.68,10.0,WSW,10.4,-,N/A,,Overcast,250,2013-04-11 14:15:00
9:35 AM,30.2,28.4,93,29.69,10.0,West,12.7,-,N/A,,Overcast,260,2013-04-11 14:35:00
9:55 AM,30.2,28.4,93,29.69,10.0,WSW,13.8,-,N/A,,Overcast,250,2013-04-11 14:55:00
10:15 AM,30.2,28.4,93,29.68,10.0,WSW,12.7,-,N/A,,Overcast,250,2013-04-11 15:15:00
10:35 AM,30.2,28.4,93,29.68,10.0,WSW,12.7,-,N/A,,Overcast,250,2013-04-11 15:35:00
10:55 AM,30.2,28.4,93,29.68,10.0,WSW,15.0,-,N/A,,Overcast,250,2013-04-11 15:55:00
11:15 AM,30.2,28.4,93,29.68,10.0,WSW,10.4,-,N/A,,Overcast,250,2013-04-11 16:15:00
11:35 AM,30.2,26.6,86,29.69,10.0,West,11.5,-,N/A,,Overcast,260,2013-04-11 16:35:00
12:15 PM,32.0,28.4,87,29.68,10.0,WSW,12.7,16.1,N/A,,Overcast,250,2013-04-11 17:15:00
12:35 PM,33.8,28.4,81,29.68,10.0,WSW,12.7,-,N/A,,Overcast,240,2013-04-11 17:35:00
12:55 PM,33.8,28.4,81,29.68,10.0,West,13.8,20.7,N/A,,Overcast,260,2013-04-11 17:55:00
1:15 PM,33.8,26.6,75,29.67,10.0,West,13.8,-,N/A,,Overcast,260,2013-04-11 18:15:00
1:35 PM,33.8,26.6,75,29.67,10.0,WSW,15.0,21.9,N/A,,Overcast,250,2013-04-11 18:35:00
1:55 PM,33.8,28.4,81,29.66,10.0,West,11.5,-,N/A,,Overcast,260,2013-04-11 18:55:00
2:15 PM,33.8,28.4,81,29.67,10.0,West,11.5,18.4,N/A,,Overcast,270,2013-04-11 19:15:00
2:35 PM,33.8,28.4,81,29.66,10.0,West,12.7,18.4,N/A,,Overcast,270,2013-04-11 19:35:00
2:55 PM,33.8,26.6,75,29.67,10.0,West,13.8,18.4,N/A,,Overcast,260,2013-04-11 19:55:00
3:15 PM,33.8,28.4,81,29.67,10.0,West,13.8,18.4,N/A,,Overcast,270,2013-04-11 20:15:00
3:35 PM,33.8,28.4,81,29.68,10.0,West,15.0,19.6,N/A,,Overcast,260,2013-04-11 20:35:00
3:55 PM,33.8,28.4,81,29.68,7.0,West,12.7,19.6,N/A,,Overcast,270,2013-04-11 20:55:00
4:15 PM,30.2,30.2,100,29.68,4.0,West,13.8,17.3,N/A,Rain,Freezing Rain,260,2013-04-11 21:15:00
4:35 PM,30.2,28.4,93,29.67,2.0,West,10.4,-,N/A,Snow,Light Snow,270,2013-04-11 21:35:00
4:55 PM,32.0,30.2,93,29.66,5.0,West,12.7,-,N/A,Snow,Light Snow,270,2013-04-11 21:55:00
5:15 PM,33.8,30.2,87,29.66,7.0,WSW,13.8,17.3,N/A,Snow,Snow,250,2013-04-11 22:15:00
5:35 PM,33.8,30.2,87,29.66,10.0,WSW,13.8,-,N/A,,Overcast,250,2013-04-11 22:35:00
5:55 PM,33.8,30.2,87,29.66,4.0,WSW,11.5,-,N/A,Snow,Light Snow,250,2013-04-11 22:55:00
6:15 PM,33.8,30.2,87,29.66,10.0,West,12.7,18.4,N/A,Snow,Light Snow,270,2013-04-11 23:15:00
6:35 PM,33.8,30.2,87,29.66,10.0,West,9.2,-,N/A,,Overcast,270,2013-04-11 23:35:00
6:55 PM,33.8,30.2,87,29.66,10.0,West,10.4,-,N/A,,Overcast,260,2013-04-11 23:55:00
7:15 PM,33.8,30.2,87,29.67,10.0,West,10.4,-,N/A,,Overcast,260,2013-04-12 00:15:00
7:35 PM,33.8,30.2,87,29.67,10.0,West,11.5,18.4,N/A,,Overcast,270,2013-04-12 00:35:00
7:55 PM,33.8,30.2,87,29.68,10.0,West,16.1,-,N/A,,Overcast,260,2013-04-12 00:55:00
8:15 PM,33.8,28.4,81,29.68,10.0,West,10.4,-,N/A,,Overcast,260,2013-04-12 01:15:00
8:35 PM,33.8,28.4,81,29.68,10.0,West,10.4,-,N/A,,Overcast,270,2013-04-12 01:35:00
8:55 PM,33.8,30.2,87,29.68,10.0,West,11.5,17.3,N/A,,Overcast,270,2013-04-12 01:55:00
9:15 PM,33.8,30.2,87,29.69,10.0,West,10.4,16.1,N/A,,Overcast,270,2013-04-12 02:15:00
9:35 PM,32.0,30.2,93,29.70,7.0,West,13.8,18.4,N/A,,Overcast,280,2013-04-12 02:35:00
9:55 PM,32.0,30.2,93,29.70,10.0,West,10.4,-,N/A,,Overcast,270,2013-04-12 02:55:00
10:15 PM,32.0,30.2,93,29.70,10.0,West,11.5,-,N/A,,Overcast,270,2013-04-12 03:15:00
10:35 PM,32.0,30.2,93,29.70,10.0,West,9.2,-,N/A,,Overcast,270,2013-04-12 03:35:00
10:55 PM,32.0,30.2,93,29.71,10.0,West,9.2,-,N/A,,Overcast,270,2013-04-12 03:55:00
11:15 PM,32.0,30.2,93,29.71,10.0,West,10.4,-,N/A,,Overcast,270,2013-04-12 04:15:00
11:35 PM,32.0,28.4,87,29.71,10.0,West,12.7,17.3,N/A,,Overcast,270,2013-04-12 04:35:00
11:55 PM,32.0,28.4,87,29.71,10.0,West,13.8,-,N/A,,Overcast,280,2013-04-12 04:55:00